| time (UTC) | temp F | wind direction | speed MPH | gust MPH | rain 1hr in | rain 24hr in | rain mn in | humidity % | barometer mb |
| 20260901063751 | 81 | 116 | 2.0 | 6.0 | 0.00 | 0.00 | 0.00 | 75 | 1016.8 |
| 20260901063252 | 81 | 128 | 2.0 | 6.0 | 0.00 | 0.00 | 0.00 | 75 | 1016.7 |
| 20260901062751 | 81 | 114 | 3.0 | 7.0 | 0.00 | 0.00 | 0.00 | 74 | 1016.7 |
| 20260901062251 | 81 | 130 | 3.0 | 7.0 | 0.00 | 0.00 | 0.00 | 74 | 1016.7 |
| 20260901061752 | 81 | 126 | 2.0 | 7.0 | 0.00 | 0.00 | 0.00 | 73 | 1016.7 |
| 20260901061251 | 82 | 110 | 3.0 | 11.0 | 0.00 | 0.00 | 0.00 | 73 | 1016.7 |
| 20260901060752 | 82 | 137 | 3.0 | 11.0 | 0.00 | 0.00 | 0.00 | 73 | 1016.6 |
| 20260901060251 | 82 | 72 | 3.0 | 7.0 | 0.00 | 0.00 | 0.00 | 72 | 1016.5 |
| 20260901055751 | 82 | 127 | 2.0 | 7.0 | 0.00 | 0.00 | 0.00 | 72 | 1016.5 |
| 20260901055252 | 82 | 145 | 1.0 | 6.0 | 0.00 | 0.00 | 0.00 | 71 | 1016.4 |
| 20260901054752 | 82 | 119 | 1.0 | 7.0 | 0.00 | 0.00 | 0.00 | 70 | 1016.3 |
| 20260901054250 | 82 | 99 | 2.0 | 7.0 | 0.00 | 0.00 | 0.00 | 70 | 1016.3 |
| 20260901053750 | 82 | 74 | 1.0 | 6.0 | 0.00 | 0.00 | 0.00 | 69 | 1016.3 |
| 20260901053250 | 83 | 155 | 2.0 | 7.0 | 0.00 | 0.00 | 0.00 | 69 | 1016.4 |
| 20260901052749 | 83 | 117 | 2.0 | 7.0 | 0.00 | 0.00 | 0.00 | 69 | 1016.3 |
| 20260901052249 | 83 | 166 | 2.0 | 6.0 | 0.00 | 0.00 | 0.00 | 68 | 1016.3 |
| 20260901051750 | 83 | 136 | 2.0 | 7.0 | 0.00 | 0.00 | 0.00 | 68 | 1016.3 |
| 20260901051249 | 83 | 111 | 3.0 | 9.0 | 0.00 | 0.00 | 0.00 | 67 | 1016.3 |
| 20260901050750 | 83 | 122 | 3.0 | 9.0 | 0.00 | 0.00 | 0.00 | 67 | 1016.2 |
| 20260901050250 | 84 | 111 | 3.0 | 9.0 | 0.00 | 0.00 | 0.00 | 66 | 1016.2 |
| 20260901045753 | 84 | 134 | 3.0 | 8.0 | 0.00 | 0.00 | 0.00 | 65 | 1016.0 |
| 20260901045749 | 84 | 113 | 3.0 | 8.0 | 0.00 | 0.00 | 0.00 | 66 | 1016.2 |
| 20260901044753 | 84 | 98 | 2.0 | 8.0 | 0.00 | 0.00 | 0.00 | 64 | 1016.1 |
| 20260901044749 | 84 | 124 | 2.0 | 8.0 | 0.00 | 0.00 | 0.00 | 65 | 1016.0 |
| 20260901043748 | 84 | 129 | 3.0 | 8.0 | 0.00 | 0.00 | 0.00 | 64 | 1016.0 |
| 20260901043251 | 85 | 144 | 3.0 | 8.0 | 0.00 | 0.00 | 0.00 | 63 | 1016.0 |
| 20260901043247 | 85 | 136 | 3.0 | 9.0 | 0.00 | 0.00 | 0.00 | 63 | 1016.0 |
| 20260901042851 | 85 | 134 | 2.0 | 9.0 | 0.00 | 0.00 | 0.00 | 62 | 1015.9 |
| 20260901041747 | 85 | 148 | 2.0 | 7.0 | 0.00 | 0.00 | 0.00 | 62 | 1015.8 |
| 20260901041251 | 85 | 126 | 3.0 | 10.0 | 0.00 | 0.00 | 0.00 | 61 | 1015.7 |
| 20260901041247 | 85 | 116 | 2.0 | 7.0 | 0.00 | 0.00 | 0.00 | 61 | 1015.8 |
| 20260901040851 | 86 | 126 | 3.0 | 10.0 | 0.00 | 0.00 | 0.00 | 60 | 1015.6 |
| 20260901035747 | 86 | 198 | 4.0 | 9.0 | 0.00 | 0.00 | 0.00 | 60 | 1015.5 |
| 20260901035247 | 86 | 119 | 4.0 | 9.0 | 0.00 | 0.00 | 0.00 | 59 | 1015.6 |
| 20260901034747 | 86 | 128 | 4.0 | 9.0 | 0.00 | 0.00 | 0.00 | 59 | 1015.6 |
| 20260901034247 | 87 | 179 | 4.0 | 8.0 | 0.00 | 0.00 | 0.00 | 59 | 1015.6 |
| 20260901033747 | 87 | 107 | 4.0 | 9.0 | 0.00 | 0.00 | 0.00 | 58 | 1015.5 |
| 20260901033247 | 87 | 130 | 4.0 | 9.0 | 0.00 | 0.00 | 0.00 | 58 | 1015.5 |
| 20260901032747 | 87 | 134 | 4.0 | 13.0 | 0.00 | 0.00 | 0.00 | 57 | 1015.5 |
| 20260901032250 | 88 | 48 | 5.0 | 15.0 | 0.00 | 0.00 | 0.00 | 57 | 1015.2 |
| 20260901032246 | 87 | 107 | 4.0 | 13.0 | 0.00 | 0.00 | 0.00 | 57 | 1015.4 |
| 20260901031247 | 88 | 109 | 5.0 | 15.0 | 0.00 | 0.00 | 0.00 | 56 | 1015.2 |
| 20260901030747 | 88 | 144 | 4.0 | 12.0 | 0.00 | 0.00 | 0.00 | 56 | 1015.1 |
| 20260901030246 | 88 | 128 | 4.0 | 11.0 | 0.00 | 0.00 | 0.00 | 55 | 1015.1 |
| 20260901025747 | 89 | 146 | 5.0 | 16.0 | 0.00 | 0.00 | 0.00 | 55 | 1015.0 |
| 20260901025247 | 89 | 100 | 6.0 | 16.0 | 0.00 | 0.00 | 0.00 | 54 | 1014.9 |
| 20260901024746 | 89 | 126 | 6.0 | 16.0 | 0.00 | 0.00 | 0.00 | 54 | 1014.8 |
| 20260901024245 | 90 | 153 | 6.0 | 16.0 | 0.00 | 0.00 | 0.00 | 54 | 1014.8 |
| 20260901023745 | 90 | 132 | 5.0 | 11.0 | 0.00 | 0.00 | 0.00 | 53 | 1014.7 |
| 20260901023245 | 90 | 105 | 5.0 | 11.0 | 0.00 | 0.00 | 0.00 | 52 | 1014.7 |
| 20260901022745 | 91 | 64 | 5.0 | 14.0 | 0.00 | 0.00 | 0.00 | 51 | 1014.5 |
| 20260901022245 | 91 | 30 | 4.0 | 14.0 | 0.00 | 0.00 | 0.00 | 51 | 1014.4 |
| 20260901021749 | 91 | 121 | 2.0 | 7.0 | 0.00 | 0.00 | 0.00 | 48 | 1014.2 |
| 20260901021745 | 91 | 161 | 3.0 | 9.0 | 0.00 | 0.00 | 0.00 | 49 | 1014.4 |
| 20260901020745 | 91 | 123 | 1.0 | 4.0 | 0.00 | 0.00 | 0.00 | 48 | 1014.1 |
| 20260901020243 | 91 | 115 | 1.0 | 4.0 | 0.00 | 0.00 | 0.00 | 47 | 1014.0 |
| 20260901015743 | 91 | 146 | 1.0 | 5.0 | 0.00 | 0.00 | 0.00 | 47 | 1013.9 |
| 20260901015243 | 91 | 133 | 0.0 | 5.0 | 0.00 | 0.00 | 0.00 | 47 | 1014.0 |
| 20260901014743 | 92 | 112 | 0.0 | 4.0 | 0.00 | 0.00 | 0.00 | 46 | 1013.8 |
| 20260901014243 | 92 | 121 | 1.0 | 4.0 | 0.00 | 0.00 | 0.00 | 46 | 1013.7 |
| 20260901013742 | 92 | 122 | 1.0 | 4.0 | 0.00 | 0.00 | 0.00 | 45 | 1013.7 |
| 20260901013243 | 92 | 117 | 1.0 | 4.0 | 0.00 | 0.00 | 0.00 | 45 | 1013.8 |
| 20260901012743 | 92 | 121 | 1.0 | 4.0 | 0.00 | 0.00 | 0.00 | 44 | 1013.6 |
| 20260901012240 | 92 | 111 | 0.0 | 2.0 | 0.00 | 0.00 | 0.00 | 44 | 1013.6 |
| 20260901011741 | 93 | 113 | 0.0 | 2.0 | 0.00 | 0.00 | 0.00 | 43 | 1013.6 |
| 20260901011241 | 93 | 113 | 0.0 | 4.0 | 0.00 | 0.00 | 0.00 | 43 | 1013.5 |
| 20260901010741 | 94 | 113 | 1.0 | 4.0 | 0.00 | 0.00 | 0.00 | 42 | 1013.5 |
| 20260901010240 | 94 | 122 | 1.0 | 6.0 | 0.00 | 0.00 | 0.00 | 42 | 1013.4 |
| 20260901005741 | 94 | 98 | 1.0 | 6.0 | 0.00 | 0.00 | 0.00 | 41 | 1013.4 |
| 20260901005241 | 95 | 111 | 1.0 | 5.0 | 0.00 | 0.00 | 0.00 | 41 | 1013.4 |
| 20260901004745 | 96 | 117 | 1.0 | 7.0 | 0.00 | 0.00 | 0.00 | 40 | 1013.3 |
| 20260901004741 | 95 | 111 | 1.0 | 7.0 | 0.00 | 0.00 | 0.00 | 40 | 1013.4 |
| 20260901003744 | 97 | 111 | 1.0 | 7.0 | 0.00 | 0.00 | 0.00 | 39 | 1013.4 |
| 20260901003739 | 97 | 114 | 2.0 | 7.0 | 0.00 | 0.00 | 0.00 | 39 | 1013.4 |
| 20260901003343 | 97 | 116 | 1.0 | 5.0 | 0.00 | 0.00 | 0.00 | 38 | 1013.3 |
| 20260901002239 | 98 | 98 | 1.0 | 5.0 | 0.00 | 0.00 | 0.00 | 37 | 1013.3 |
| 20260901001743 | 98 | 133 | 2.0 | 5.0 | 0.00 | 0.00 | 0.00 | 36 | 1013.2 |
| 20260901001739 | 98 | 115 | 2.0 | 5.0 | 0.00 | 0.00 | 0.00 | 37 | 1013.2 |
| 20260901000739 | 98 | 140 | 2.0 | 6.0 | 0.00 | 0.00 | 0.00 | 36 | 1013.2 |
| 20260901000241 | 99 | 136 | 2.0 | 6.0 | 0.00 | 0.00 | 0.00 | 35 | 1013.2 |
| 20260831235739 | 99 | 117 | 2.0 | 8.0 | 0.00 | 0.00 | 0.00 | 35 | 1013.2 |
| 20260831235239 | 99 | 119 | 3.0 | 10.0 | 0.00 | 0.00 | 0.00 | 35 | 1013.2 |
| 20260831234741 | 99 | 44 | 2.0 | 10.0 | 0.00 | 0.00 | 0.00 | 35 | 1013.1 |
| 20260831234737 | 100 | 114 | 2.0 | 5.0 | 0.00 | 0.00 | 0.00 | 35 | 1013.1 |
| 20260831233737 | 100 | 123 | 2.0 | 7.0 | 0.00 | 0.00 | 0.00 | 35 | 1013.1 |
| 20260831233237 | 100 | 129 | 2.0 | 7.0 | 0.00 | 0.00 | 0.00 | 34 | 1013.1 |
| 20260831232737 | 100 | 113 | 3.0 | 9.0 | 0.00 | 0.00 | 0.00 | 35 | 1013.0 |
| 20260831232237 | 100 | 61 | 4.0 | 9.0 | 0.00 | 0.00 | 0.00 | 34 | 1013.1 |
| 20260831231736 | 101 | 55 | 3.0 | 8.0 | 0.00 | 0.00 | 0.00 | 34 | 1013.1 |
| 20260831231239 | 101 | 170 | 2.0 | 8.0 | 0.00 | 0.00 | 0.00 | 34 | 1013.1 |
| 20260831231235 | 101 | 94 | 2.0 | 6.0 | 0.00 | 0.00 | 0.00 | 35 | 1013.1 |
| 20260831230235 | 101 | 121 | 3.0 | 8.0 | 0.00 | 0.00 | 0.00 | 34 | 1013.2 |
| 20260831225735 | 101 | 82 | 2.0 | 8.0 | 0.00 | 0.00 | 0.00 | 33 | 1013.2 |
| 20260831225234 | 101 | 98 | 3.0 | 7.0 | 0.00 | 0.00 | 0.00 | 35 | 1013.2 |
| 20260831224739 | 101 | 59 | 3.0 | 8.0 | 0.00 | 0.00 | 0.00 | 35 | 1013.3 |
| 20260831224735 | 101 | 65 | 3.0 | 8.0 | 0.00 | 0.00 | 0.00 | 37 | 1013.2 |
| 20260831223733 | 101 | 128 | 3.0 | 9.0 | 0.00 | 0.00 | 0.00 | 35 | 1013.3 |
| 20260831223233 | 101 | 127 | 2.0 | 9.0 | 0.00 | 0.00 | 0.00 | 36 | 1013.3 |
| 20260831222737 | 100 | 22 | 3.0 | 9.0 | 0.00 | 0.00 | 0.00 | 35 | 1013.4 |
| 20260831222733 | 100 | 100 | 2.0 | 9.0 | 0.00 | 0.00 | 0.00 | 37 | 1013.4 |
| 20260831221733 | 101 | 105 | 2.0 | 7.0 | 0.00 | 0.00 | 0.00 | 36 | 1013.5 |
| 20260831221233 | 101 | 145 | 2.0 | 7.0 | 0.00 | 0.00 | 0.00 | 34 | 1013.5 |
| 20260831220733 | 101 | 148 | 3.0 | 8.0 | 0.00 | 0.00 | 0.00 | 36 | 1013.5 |
| 20260831220233 | 101 | 98 | 3.0 | 8.0 | 0.00 | 0.00 | 0.00 | 35 | 1013.6 |
| 20260831215733 | 102 | 115 | 3.0 | 8.0 | 0.00 | 0.00 | 0.00 | 36 | 1013.7 |
| 20260831215232 | 101 | 128 | 2.0 | 8.0 | 0.00 | 0.00 | 0.00 | 38 | 1013.8 |
| 20260831214731 | 101 | 103 | 3.0 | 7.0 | 0.00 | 0.00 | 0.00 | 37 | 1014.0 |
| 20260831214229 | 101 | 126 | 3.0 | 7.0 | 0.00 | 0.00 | 0.00 | 37 | 1014.0 |
| 20260831213729 | 100 | 102 | 3.0 | 7.0 | 0.00 | 0.00 | 0.00 | 37 | 1014.1 |
| 20260831213229 | 100 | 71 | 3.0 | 8.0 | 0.00 | 0.00 | 0.00 | 38 | 1014.1 |
| 20260831212727 | 100 | 180 | 3.0 | 8.0 | 0.00 | 0.00 | 0.00 | 38 | 1014.0 |
| 20260831212227 | 100 | 91 | 3.0 | 9.0 | 0.00 | 0.00 | 0.00 | 39 | 1014.3 |
| 20260831211728 | 99 | 232 | 3.0 | 9.0 | 0.00 | 0.00 | 0.00 | 41 | 1014.3 |
| 20260831211724 | 99 | 92 | 3.0 | 11.0 | 0.00 | 0.00 | 0.00 | 39 | 1014.3 |
| 20260831210723 | 100 | 113 | 4.0 | 11.0 | 0.00 | 0.00 | 0.00 | 40 | 1014.4 |
| 20260831210223 | 99 | 84 | 4.0 | 11.0 | 0.00 | 0.00 | 0.00 | 40 | 1014.5 |
| 20260831205722 | 99 | 65 | 4.0 | 12.0 | 0.00 | 0.00 | 0.00 | 40 | 1014.5 |
| 20260831205221 | 99 | 115 | 3.0 | 12.0 | 0.00 | 0.00 | 0.00 | 40 | 1014.6 |
| 20260831204721 | 98 | 117 | 3.0 | 11.0 | 0.00 | 0.00 | 0.00 | 41 | 1014.6 |
| 20260831204221 | 98 | 13 | 4.0 | 11.0 | 0.00 | 0.00 | 0.00 | 41 | 1014.7 |
| 20260831203721 | 98 | 40 | 3.0 | 8.0 | 0.00 | 0.00 | 0.00 | 41 | 1014.8 |
| 20260831203221 | 98 | 125 | 2.0 | 7.0 | 0.00 | 0.00 | 0.00 | 42 | 1015.0 |
| 20260831202721 | 98 | 119 | 2.0 | 9.0 | 0.00 | 0.00 | 0.00 | 41 | 1015.0 |
| 20260831202219 | 97 | 107 | 4.0 | 10.0 | 0.00 | 0.00 | 0.00 | 42 | 1015.1 |
| 20260831201720 | 98 | 104 | 3.0 | 11.0 | 0.00 | 0.00 | 0.00 | 41 | 1015.2 |
| 20260831201716 | 98 | 90 | 4.0 | 11.0 | 0.00 | 0.00 | 0.00 | 41 | 1015.2 |
| 20260831200715 | 99 | 91 | 3.0 | 10.0 | 0.00 | 0.00 | 0.00 | 41 | 1015.4 |
| 20260831200215 | 98 | 93 | 4.0 | 10.0 | 0.00 | 0.00 | 0.00 | 42 | 1015.2 |
| 20260831195715 | 97 | 111 | 4.0 | 12.0 | 0.00 | 0.00 | 0.00 | 43 | 1015.5 |
| 20260831195216 | 98 | 48 | 3.0 | 12.0 | 0.00 | 0.00 | 0.00 | 42 | 1015.7 |
| 20260831194719 | 97 | 43 | 4.0 | 11.0 | 0.00 | 0.00 | 0.00 | 44 | 1015.8 |
| 20260831194715 | 98 | 124 | 3.0 | 10.0 | 0.00 | 0.00 | 0.00 | 42 | 1015.8 |
| 20260831193715 | 98 | 86 | 4.0 | 11.0 | 0.00 | 0.00 | 0.00 | 41 | 1015.9 |
| 20260831193214 | 98 | 64 | 4.0 | 10.0 | 0.00 | 0.00 | 0.00 | 41 | 1016.0 |
| 20260831192714 | 98 | 166 | 3.0 | 9.0 | 0.00 | 0.00 | 0.00 | 42 | 1016.0 |
| 20260831192215 | 98 | 132 | 2.0 | 7.0 | 0.00 | 0.00 | 0.00 | 42 | 1016.2 |
| 20260831192211 | 99 | 136 | 2.0 | 8.0 | 0.00 | 0.00 | 0.00 | 40 | 1016.0 |
| 20260831191211 | 98 | 113 | 2.0 | 8.0 | 0.00 | 0.00 | 0.00 | 43 | 1016.2 |
| 20260831190709 | 98 | 167 | 2.0 | 8.0 | 0.00 | 0.00 | 0.00 | 43 | 1016.3 |
| 20260831190207 | 98 | 144 | 2.0 | 7.0 | 0.00 | 0.00 | 0.00 | 44 | 1016.4 |
| 20260831185712 | 97 | 146 | 2.0 | 8.0 | 0.00 | 0.00 | 0.00 | 43 | 1016.5 |
| 20260831185707 | 98 | 80 | 2.0 | 8.0 | 0.00 | 0.00 | 0.00 | 44 | 1016.3 |
| 20260831184706 | 97 | 99 | 3.0 | 11.0 | 0.00 | 0.00 | 0.00 | 43 | 1016.5 |
| 20260831184207 | 97 | 125 | 4.0 | 13.0 | 0.00 | 0.00 | 0.00 | 46 | 1016.7 |
| 20260831183707 | 96 | 103 | 4.0 | 13.0 | 0.00 | 0.00 | 0.00 | 45 | 1016.7 |
| 20260831183207 | 96 | 117 | 3.0 | 11.0 | 0.00 | 0.00 | 0.00 | 45 | 1016.8 |
| 20260831182707 | 96 | 167 | 3.0 | 8.0 | 0.00 | 0.00 | 0.00 | 46 | 1016.8 |
| 20260831182206 | 95 | 147 | 3.0 | 9.0 | 0.00 | 0.00 | 0.00 | 48 | 1016.8 |
| 20260831181705 | 95 | 97 | 3.0 | 9.0 | 0.00 | 0.00 | 0.00 | 47 | 1016.9 |
| 20260831181206 | 94 | 154 | 4.0 | 10.0 | 0.00 | 0.00 | 0.00 | 48 | 1016.9 |
| 20260831180705 | 94 | 138 | 3.0 | 10.0 | 0.00 | 0.00 | 0.00 | 49 | 1016.9 |
| 20260831180205 | 94 | 215 | 4.0 | 10.0 | 0.00 | 0.00 | 0.00 | 49 | 1017.0 |
| 20260831175706 | 94 | 115 | 3.0 | 10.0 | 0.00 | 0.00 | 0.00 | 49 | 1017.0 |
| 20260831175209 | 95 | 157 | 3.0 | 11.0 | 0.00 | 0.00 | 0.00 | 50 | 1017.2 |
| 20260831175205 | 94 | 113 | 2.0 | 10.0 | 0.00 | 0.00 | 0.00 | 51 | 1017.1 |
| 20260831174204 | 94 | 103 | 3.0 | 11.0 | 0.00 | 0.00 | 0.00 | 50 | 1017.3 |
| 20260831173703 | 94 | 136 | 2.0 | 7.0 | 0.00 | 0.00 | 0.00 | 53 | 1017.3 |
| 20260831173204 | 94 | 113 | 2.0 | 6.0 | 0.00 | 0.00 | 0.00 | 54 | 1017.2 |
| 20260831172703 | 93 | 115 | 2.0 | 7.0 | 0.00 | 0.00 | 0.00 | 55 | 1017.2 |
| 20260831172203 | 92 | 115 | 3.0 | 8.0 | 0.00 | 0.00 | 0.00 | 55 | 1017.2 |
| 20260831171704 | 92 | 113 | 3.0 | 8.0 | 0.00 | 0.00 | 0.00 | 56 | 1017.2 |
| 20260831171203 | 92 | 110 | 3.0 | 7.0 | 0.00 | 0.00 | 0.00 | 56 | 1017.3 |
| 20260831170702 | 91 | 200 | 3.0 | 9.0 | 0.00 | 0.00 | 0.00 | 58 | 1017.4 |
| 20260831170203 | 91 | 196 | 3.0 | 9.0 | 0.00 | 0.00 | 0.00 | 57 | 1017.4 |
| 20260831165704 | 91 | 110 | 3.0 | 7.0 | 0.00 | 0.00 | 0.00 | 58 | 1017.4 |
| 20260831165203 | 91 | 130 | 3.0 | 9.0 | 0.00 | 0.00 | 0.00 | 59 | 1017.4 |
| 20260831164703 | 90 | 94 | 3.0 | 9.0 | 0.00 | 0.00 | 0.00 | 61 | 1017.5 |
| 20260831164203 | 89 | 167 | 4.0 | 9.0 | 0.00 | 0.00 | 0.00 | 61 | 1017.5 |
| 20260831163704 | 90 | 142 | 2.0 | 7.0 | 0.00 | 0.00 | 0.00 | 61 | 1017.4 |
| 20260831163700 | 89 | 174 | 3.0 | 7.0 | 0.00 | 0.00 | 0.00 | 63 | 1017.5 |
| 20260831162658 | 89 | 153 | 3.0 | 9.0 | 0.00 | 0.00 | 0.00 | 64 | 1017.4 |
| 20260831162159 | 89 | 196 | 3.0 | 9.0 | 0.00 | 0.00 | 0.00 | 65 | 1017.5 |
| 20260831161657 | 88 | 134 | 3.0 | 7.0 | 0.00 | 0.00 | 0.00 | 67 | 1017.6 |
| 20260831161158 | 88 | 167 | 3.0 | 8.0 | 0.00 | 0.00 | 0.00 | 66 | 1017.5 |
| 20260831160655 | 87 | 69 | 4.0 | 8.0 | 0.00 | 0.00 | 0.00 | 67 | 1017.5 |
| 20260831160152 | 87 | 130 | 3.0 | 10.0 | 0.00 | 0.00 | 0.00 | 68 | 1017.5 |
| 20260831155651 | 87 | 217 | 4.0 | 12.0 | 0.00 | 0.00 | 0.00 | 69 | 1017.5 |
| 20260831155151 | 87 | 132 | 5.0 | 12.0 | 0.00 | 0.00 | 0.00 | 68 | 1017.7 |
| 20260831154652 | 87 | 157 | 4.0 | 11.0 | 0.00 | 0.00 | 0.00 | 67 | 1017.6 |
| 20260831154151 | 86 | 116 | 4.0 | 9.0 | 0.00 | 0.00 | 0.00 | 69 | 1017.6 |
| 20260831153651 | 86 | 167 | 3.0 | 9.0 | 0.00 | 0.00 | 0.00 | 70 | 1017.5 |
| 20260831153156 | 86 | 129 | 3.0 | 7.0 | 0.00 | 0.00 | 0.00 | 70 | 1017.4 |
| 20260831153152 | 86 | 162 | 3.0 | 7.0 | 0.00 | 0.00 | 0.00 | 69 | 1017.4 |
| 20260831152152 | 85 | 97 | 3.0 | 7.0 | 0.00 | 0.00 | 0.00 | 71 | 1017.4 |
| 20260831151652 | 85 | 158 | 3.0 | 7.0 | 0.00 | 0.00 | 0.00 | 72 | 1017.3 |
| 20260831151149 | 85 | 98 | 3.0 | 7.0 | 0.00 | 0.00 | 0.00 | 73 | 1017.4 |
| 20260831150649 | 85 | 114 | 3.0 | 7.0 | 0.00 | 0.00 | 0.00 | 74 | 1017.3 |
| 20260831150150 | 84 | 90 | 5.0 | 11.0 | 0.00 | 0.00 | 0.00 | 75 | 1017.4 |
| 20260831145650 | 83 | 172 | 4.0 | 11.0 | 0.00 | 0.00 | 0.00 | 74 | 1017.5 |
| 20260831145149 | 83 | 114 | 3.0 | 8.0 | 0.00 | 0.00 | 0.00 | 75 | 1017.4 |
| 20260831144649 | 83 | 192 | 3.0 | 8.0 | 0.00 | 0.00 | 0.00 | 75 | 1017.4 |
| 20260831144149 | 83 | 123 | 4.0 | 8.0 | 0.00 | 0.00 | 0.00 | 77 | 1017.4 |
| 20260831143649 | 83 | 189 | 4.0 | 8.0 | 0.00 | 0.00 | 0.00 | 76 | 1017.4 |
| 20260831143153 | 83 | 149 | 2.0 | 6.0 | 0.00 | 0.00 | 0.00 | 77 | 1017.3 |
| 20260831143149 | 83 | 169 | 2.0 | 8.0 | 0.00 | 0.00 | 0.00 | 76 | 1017.4 |
| 20260831142149 | 82 | 157 | 2.0 | 6.0 | 0.00 | 0.00 | 0.00 | 78 | 1017.3 |
| 20260831141650 | 82 | 164 | 2.0 | 6.0 | 0.00 | 0.00 | 0.00 | 79 | 1017.3 |
| 20260831141149 | 82 | 177 | 2.0 | 6.0 | 0.00 | 0.00 | 0.00 | 79 | 1017.3 |
| 20260831140649 | 82 | 128 | 1.0 | 6.0 | 0.00 | 0.00 | 0.00 | 79 | 1017.3 |
| 20260831140154 | 81 | 130 | 1.0 | 5.0 | 0.00 | 0.00 | 0.00 | 81 | 1017.1 |
| 20260831140150 | 82 | 182 | 1.0 | 5.0 | 0.00 | 0.00 | 0.00 | 79 | 1017.1 |
| 20260831135149 | 81 | 115 | 1.0 | 5.0 | 0.00 | 0.00 | 0.00 | 82 | 1017.1 |
| 20260831134650 | 81 | 190 | 1.0 | 5.0 | 0.00 | 0.00 | 0.00 | 82 | 1017.1 |
| 20260831134149 | 81 | 107 | 1.0 | 5.0 | 0.00 | 0.00 | 0.00 | 82 | 1017.1 |
| 20260831133649 | 80 | 124 | 1.0 | 4.0 | 0.00 | 0.00 | 0.00 | 83 | 1017.0 |
| 20260831133150 | 80 | 104 | 1.0 | 4.0 | 0.00 | 0.00 | 0.00 | 83 | 1016.9 |
| 20260831132650 | 80 | 105 | 1.0 | 4.0 | 0.00 | 0.00 | 0.00 | 84 | 1016.9 |
| 20260831132153 | 79 | 109 | 1.0 | 4.0 | 0.00 | 0.00 | 0.00 | 85 | 1016.8 |
| 20260831132149 | 80 | 123 | 1.0 | 4.0 | 0.00 | 0.00 | 0.00 | 85 | 1016.9 |
| 20260831131149 | 79 | 148 | 1.0 | 2.0 | 0.00 | 0.00 | 0.00 | 86 | 1016.8 |
| 20260831130650 | 78 | 113 | 0.0 | 2.0 | 0.00 | 0.00 | 0.00 | 86 | 1016.8 |
| 20260831130149 | 78 | 121 | 0.0 | 2.0 | 0.00 | 0.00 | 0.00 | 87 | 1016.8 |
| 20260831125654 | 77 | 121 | 0.0 | 4.0 | 0.00 | 0.00 | 0.00 | 87 | 1016.8 |
| 20260831125650 | 77 | 121 | 0.0 | 2.0 | 0.00 | 0.00 | 0.00 | 87 | 1016.8 |
| 20260831124649 | 77 | 121 | 0.0 | 4.0 | 0.00 | 0.00 | 0.00 | 87 | 1016.7 |
| 20260831124148 | 77 | 121 | 0.0 | 2.0 | 0.00 | 0.00 | 0.00 | 87 | 1016.7 |
| 20260831123648 | 77 | 121 | 0.0 | 1.0 | 0.00 | 0.00 | 0.00 | 87 | 1016.6 |
| 20260831123147 | 77 | 121 | 0.0 | 2.0 | 0.00 | 0.00 | 0.00 | 87 | 1016.5 |
| 20260831122652 | 77 | 115 | 0.0 | 2.0 | 0.00 | 0.00 | 0.00 | 87 | 1016.5 |
| 20260831122648 | 77 | 114 | 0.0 | 2.0 | 0.00 | 0.00 | 0.00 | 87 | 1016.5 |
| 20260831122252 | 77 | 115 | 0.0 | 4.0 | 0.00 | 0.00 | 0.00 | 87 | 1016.5 |
| 20260831121148 | 77 | 115 | 1.0 | 4.0 | 0.00 | 0.00 | 0.00 | 86 | 1016.4 |
| 20260831120647 | 77 | 115 | 1.0 | 4.0 | 0.00 | 0.00 | 0.00 | 86 | 1016.4 |
| 20260831120147 | 77 | 115 | 1.0 | 4.0 | 0.00 | 0.00 | 0.00 | 86 | 1016.5 |
| 20260831115648 | 77 | 165 | 0.0 | 3.0 | 0.00 | 0.00 | 0.00 | 86 | 1016.4 |
| 20260831115148 | 77 | 113 | 0.0 | 5.0 | 0.00 | 0.00 | 0.00 | 86 | 1016.4 |
| 20260831114647 | 78 | 116 | 1.0 | 5.0 | 0.00 | 0.00 | 0.00 | 86 | 1016.5 |
| 20260831114152 | 78 | 138 | 1.0 | 4.0 | 0.00 | 0.00 | 0.00 | 85 | 1016.4 |
| 20260831114148 | 78 | 119 | 1.0 | 3.0 | 0.00 | 0.00 | 0.00 | 85 | 1016.4 |
| 20260831113147 | 78 | 119 | 0.0 | 4.0 | 0.00 | 0.00 | 0.00 | 85 | 1016.4 |
| 20260831112652 | 78 | 125 | 1.0 | 4.0 | 0.00 | 0.00 | 0.00 | 85 | 1016.4 |
| 20260831112648 | 78 | 123 | 1.0 | 4.0 | 0.00 | 0.00 | 0.00 | 85 | 1016.4 |
| 20260831111647 | 78 | 126 | 1.0 | 4.0 | 0.00 | 0.00 | 0.00 | 85 | 1016.4 |
| 20260831111147 | 78 | 128 | 1.0 | 5.0 | 0.00 | 0.00 | 0.00 | 85 | 1016.4 |
| 20260831110652 | 78 | 111 | 0.0 | 4.0 | 0.00 | 0.00 | 0.00 | 85 | 1016.5 |
| 20260831110648 | 78 | 150 | 1.0 | 5.0 | 0.00 | 0.00 | 0.00 | 85 | 1016.5 |
| 20260831105647 | 78 | 113 | 0.0 | 4.0 | 0.00 | 0.00 | 0.00 | 85 | 1016.5 |
| 20260831105148 | 78 | 117 | 1.0 | 5.0 | 0.00 | 0.00 | 0.00 | 85 | 1016.4 |
| 20260831104648 | 78 | 116 | 1.0 | 5.0 | 0.00 | 0.00 | 0.00 | 85 | 1016.5 |
| 20260831104152 | 78 | 128 | 1.0 | 5.0 | 0.00 | 0.00 | 0.00 | 85 | 1016.4 |
| 20260831104148 | 78 | 127 | 1.0 | 5.0 | 0.00 | 0.00 | 0.00 | 85 | 1016.4 |
| 20260831103147 | 78 | 112 | 1.0 | 5.0 | 0.00 | 0.00 | 0.00 | 84 | 1016.4 |
| 20260831102648 | 78 | 111 | 1.0 | 5.0 | 0.00 | 0.00 | 0.00 | 84 | 1016.4 |
| 20260831102147 | 78 | 118 | 1.0 | 5.0 | 0.00 | 0.00 | 0.00 | 84 | 1016.4 |
| 20260831101648 | 78 | 129 | 1.0 | 4.0 | 0.00 | 0.00 | 0.00 | 84 | 1016.4 |
| 20260831101152 | 78 | 169 | 1.0 | 5.0 | 0.00 | 0.00 | 0.00 | 84 | 1016.5 |
| 20260831101148 | 78 | 154 | 1.0 | 5.0 | 0.00 | 0.00 | 0.00 | 84 | 1016.4 |
| 20260831100751 | 78 | 124 | 1.0 | 5.0 | 0.00 | 0.00 | 0.00 | 84 | 1016.5 |
| 20260831095645 | 78 | 113 | 1.0 | 5.0 | 0.00 | 0.00 | 0.00 | 84 | 1016.5 |
| 20260831095146 | 78 | 128 | 1.0 | 5.0 | 0.00 | 0.00 | 0.00 | 84 | 1016.5 |
| 20260831094649 | 78 | 107 | 2.0 | 7.0 | 0.00 | 0.00 | 0.00 | 84 | 1016.5 |
| 20260831094644 | 78 | 143 | 1.0 | 7.0 | 0.00 | 0.00 | 0.00 | 84 | 1016.4 |
| 20260831093645 | 79 | 126 | 2.0 | 6.0 | 0.00 | 0.00 | 0.00 | 83 | 1016.4 |
| 20260831093641 | 78 | 75 | 1.0 | 6.0 | 0.00 | 0.00 | 0.00 | 84 | 1016.4 |
| 20260831092640 | 79 | 90 | 1.0 | 6.0 | 0.00 | 0.00 | 0.00 | 83 | 1016.4 |
| 20260831092140 | 79 | 163 | 1.0 | 4.0 | 0.00 | 0.00 | 0.00 | 83 | 1016.4 |
| 20260831091640 | 78 | 107 | 2.0 | 6.0 | 0.00 | 0.00 | 0.00 | 83 | 1016.4 |
| 20260831091144 | 79 | 115 | 1.0 | 6.0 | 0.00 | 0.00 | 0.00 | 83 | 1016.4 |
| 20260831091139 | 79 | 130 | 1.0 | 6.0 | 0.00 | 0.00 | 0.00 | 83 | 1016.4 |
| 20260831090140 | 78 | 127 | 1.0 | 6.0 | 0.00 | 0.00 | 0.00 | 83 | 1016.5 |
| 20260831085643 | 78 | 120 | 1.0 | 5.0 | 0.00 | 0.00 | 0.00 | 83 | 1016.5 |
| 20260831085639 | 78 | 131 | 1.0 | 5.0 | 0.00 | 0.00 | 0.00 | 83 | 1016.5 |
| 20260831084638 | 78 | 150 | 1.0 | 5.0 | 0.00 | 0.00 | 0.00 | 83 | 1016.5 |
| 20260831084135 | 78 | 128 | 1.0 | 5.0 | 0.00 | 0.00 | 0.00 | 83 | 1016.5 |
| 20260831083636 | 78 | 121 | 1.0 | 6.0 | 0.00 | 0.00 | 0.00 | 83 | 1016.5 |
| 20260831083136 | 78 | 119 | 1.0 | 6.0 | 0.00 | 0.00 | 0.00 | 83 | 1016.5 |
| 20260831082635 | 78 | 121 | 1.0 | 6.0 | 0.00 | 0.00 | 0.00 | 83 | 1016.5 |
| 20260831082135 | 78 | 121 | 1.0 | 6.0 | 0.00 | 0.00 | 0.00 | 83 | 1016.5 |
| 20260831081636 | 78 | 117 | 1.0 | 4.0 | 0.00 | 0.00 | 0.00 | 82 | 1016.5 |
| 20260831081140 | 78 | 129 | 1.0 | 6.0 | 0.00 | 0.00 | 0.00 | 82 | 1016.6 |
| 20260831081135 | 78 | 146 | 1.0 | 6.0 | 0.00 | 0.00 | 0.00 | 82 | 1016.5 |
| 20260831080134 | 78 | 178 | 1.0 | 6.0 | 0.00 | 0.00 | 0.00 | 82 | 1016.6 |
| 20260831075634 | 78 | 128 | 1.0 | 6.0 | 0.00 | 0.00 | 0.00 | 82 | 1016.7 |
| 20260831075133 | 78 | 139 | 1.0 | 6.0 | 0.00 | 0.00 | 0.00 | 82 | 1016.6 |
| 20260831074634 | 78 | 116 | 1.0 | 4.0 | 0.00 | 0.00 | 0.00 | 81 | 1016.6 |
| 20260831074131 | 78 | 122 | 0.0 | 4.0 | 0.00 | 0.00 | 0.00 | 81 | 1016.6 |
| 20260831073631 | 78 | 124 | 0.0 | 4.0 | 0.00 | 0.00 | 0.00 | 81 | 1016.6 |
| 20260831073132 | 79 | 130 | 0.0 | 5.0 | 0.00 | 0.00 | 0.00 | 81 | 1016.6 |
| 20260831072632 | 79 | 124 | 0.0 | 5.0 | 0.00 | 0.00 | 0.00 | 80 | 1016.7 |
| 20260831072130 | 79 | 121 | 1.0 | 4.0 | 0.00 | 0.00 | 0.00 | 80 | 1016.7 |
| 20260831071631 | 79 | 114 | 1.0 | 5.0 | 0.00 | 0.00 | 0.00 | 79 | 1016.7 |
| 20260831071627 | 79 | 117 | 1.0 | 5.0 | 0.00 | 0.00 | 0.00 | 80 | 1016.7 |
| 20260831070628 | 79 | 129 | 1.0 | 6.0 | 0.00 | 0.00 | 0.00 | 79 | 1016.7 |
| 20260831070127 | 79 | 130 | 2.0 | 6.0 | 0.00 | 0.00 | 0.00 | 79 | 1016.7 |
| 20260831065626 | 79 | 123 | 2.0 | 6.0 | 0.00 | 0.00 | 0.00 | 78 | 1016.7 |
| 20260831065126 | 79 | 83 | 2.0 | 6.0 | 0.00 | 0.00 | 0.00 | 78 | 1016.7 |
| 20260831064626 | 80 | 102 | 2.0 | 6.0 | 0.00 | 0.00 | 0.00 | 78 | 1016.7 |
| 20260831064130 | 80 | 123 | 2.0 | 8.0 | 0.00 | 0.00 | 0.00 | 77 | 1016.7 |
| 20260831064126 | 80 | 117 | 2.0 | 7.0 | 0.00 | 0.00 | 0.00 | 77 | 1016.6 |